TimeMDT,TemperatureF,Dew PointF,Humidity,Sea Level PressureIn,VisibilityMPH,Wind Direction,Wind SpeedMPH,Gust SpeedMPH,PrecipitationIn,Events,Conditions,WindDirDegrees,DateUTC
12:53 AM,48.9,26.1,41,29.68,10.0,SSW,23.0,31.1,N/A,,Clear,210,2013-04-29 06:53:00
1:53 AM,48.9,26.1,41,29.65,10.0,SW,23.0,29.9,N/A,,Clear,220,2013-04-29 07:53:00
2:53 AM,46.9,27.0,46,29.63,10.0,SW,19.6,26.5,N/A,,Clear,220,2013-04-29 08:53:00
3:53 AM,48.0,24.1,39,29.62,10.0,SW,16.1,27.6,N/A,,Partly Cloudy,220,2013-04-29 09:53:00
4:53 AM,46.9,26.1,44,29.62,10.0,SW,13.8,-,N/A,,Clear,230,2013-04-29 10:53:00
5:53 AM,46.9,27.0,46,29.59,10.0,WSW,24.2,29.9,N/A,,Clear,250,2013-04-29 11:53:00
6:53 AM,45.0,28.0,52,29.60,10.0,SW,11.5,-,N/A,,Clear,230,2013-04-29 12:53:00
7:53 AM,46.9,30.9,54,29.57,10.0,SW,20.7,28.8,N/A,,Clear,230,2013-04-29 13:53:00
8:53 AM,51.1,30.9,46,29.55,10.0,WSW,26.5,39.1,N/A,,Clear,240,2013-04-29 14:53:00
9:53 AM,54.0,32.0,43,29.51,10.0,WSW,33.4,41.4,N/A,,Clear,240,2013-04-29 15:53:00
10:53 AM,55.9,28.0,34,29.49,10.0,WSW,32.2,39.1,N/A,,Clear,240,2013-04-29 16:53:00
11:53 AM,57.0,25.0,29,29.47,10.0,WSW,38.0,50.6,N/A,,Clear,240,2013-04-29 17:53:00
12:13 PM,57.2,24.8,29,29.49,1.5,West,35.7,48.3,N/A,,Haze,260,2013-04-29 18:13:00
12:28 PM,57.2,26.6,31,29.49,10.0,WSW,34.5,43.7,N/A,,Partly Cloudy,240,2013-04-29 18:28:00
12:53 PM,55.9,27.0,33,29.48,10.0,WSW,36.8,44.9,N/A,,Partly Cloudy,240,2013-04-29 18:53:00
1:53 PM,52.0,28.0,40,29.50,10.0,West,26.5,40.3,N/A,,Scattered Clouds,260,2013-04-29 19:53:00
2:53 PM,48.9,28.9,46,29.55,10.0,WSW,35.7,49.5,N/A,,Partly Cloudy,240,2013-04-29 20:53:00
3:53 PM,52.0,24.1,34,29.53,10.0,WSW,38.0,50.6,N/A,,Clear,250,2013-04-29 21:53:00
4:53 PM,44.1,26.1,49,29.61,9.0,WNW,32.2,44.9,N/A,,Overcast,290,2013-04-29 22:53:00
5:53 PM,46.0,18.0,33,29.64,10.0,West,36.8,47.2,N/A,,Scattered Clouds,270,2013-04-29 23:53:00
6:53 PM,44.1,19.0,37,29.70,10.0,West,27.6,34.5,N/A,,Clear,280,2013-04-30 00:53:00
7:53 PM,41.0,18.0,40,29.73,10.0,WNW,21.9,28.8,N/A,,Clear,300,2013-04-30 01:53:00
8:53 PM,39.9,18.0,41,29.76,10.0,WNW,13.8,-,N/A,,Overcast,290,2013-04-30 02:53:00
9:53 PM,37.0,23.0,57,29.80,10.0,West,12.7,-,N/A,,Overcast,280,2013-04-30 03:53:00
10:53 PM,35.1,24.1,64,29.83,10.0,NW,11.5,-,N/A,,Overcast,320,2013-04-30 04:53:00
11:53 PM,32.0,25.0,75,29.84,10.0,NW,11.5,-,N/A,,Partly Cloudy,320,2013-04-30 05:53:00